GEFSSE_con_probscp_354.txt.gz
Probability
0 0 0 0 1 2 3 3 3 2 2 1 0 0 0 1 2 2 1 0 0 0 0 0 0 0 0 1 1 1 0 1 1 0 1 2 5 5 3 1 0 0 1
0 0 0 0 0 1 2 3 3 2 1 0 0 0 0 0 1 2 1 0 0 0 0 0 0 0 0 0 0 0 0 1 1 0 0 1 3 3 2 0 0 1 2
0 0 0 0 1 1 1 2 2 1 0 0 0 0 0 0 0 1 1 0 0 0 0 1 0 0 0 0 0 0 0 1 1 0 0 0 1 1 0 0 1 2 3
0 0 0 0 1 2 2 2 1 1 0 0 0 0 0 0 0 0 0 0 0 0 0 0 0 0 0 0 0 0 0 0 0 0 0 0 0 0 0 0 1 2 2
1 0 0 1 1 2 3 2 1 0 0 0 0 0 0 1 1 0 0 0 0 0 0 0 0 0 1 1 1 0 0 0 1 0 0 0 0 0 0 0 0 1 1
2 1 1 2 3 3 3 2 0 0 0 0 0 1 1 2 2 1 0 0 0 0 0 1 1 1 2 2 1 1 1 1 1 0 0 0 0 0 0 0 0 0 0
2 1 2 4 5 4 3 2 1 0 0 1 2 3 3 3 2 1 0 0 0 1 1 2 2 2 3 3 3 2 2 1 0 0 0 0 0 0 0 0 0 0 0
1 1 2 4 5 5 4 3 2 1 1 2 3 3 3 3 2 1 1 1 2 3 3 3 3 3 3 3 4 5 3 2 1 0 0 0 0 0 0 0 0 0 0
0 0 1 2 2 2 2 3 2 2 2 3 3 3 3 4 4 3 2 3 4 5 4 4 3 3 3 4 5 5 4 3 3 2 1 0 0 0 0 0 0 0 0
0 0 0 0 0 0 1 1 2 2 3 3 3 3 3 4 3 3 3 3 4 5 5 5 4 4 4 6 7 7 6 6 5 4 3 1 1 0 0 0 0 0 0
0 0 0 0 0 0 0 0 1 1 2 2 2 2 2 2 1 1 1 2 3 4 5 6 6 6 6 8 9 8 6 6 6 5 3 2 2 1 0 0 0 0 0
0 0 0 0 0 0 0 0 0 0 1 1 1 1 1 0 0 0 0 1 2 4 4 5 5 6 7 7 6 5 4 5 6 5 4 4 4 2 2 2 2 1 0
0 0 0 0 0 0 0 0 0 0 0 0 0 0 0 0 0 0 0 0 1 1 2 2 2 3 3 3 2 1 2 3 5 5 5 5 5 3 2 3 4 3 2
0 0 0 0 0 0 0 0 0 0 0 0 0 0 0 0 0 0 0 0 0 0 0 0 0 1 1 0 0 0 1 2 4 4 5 6 5 2 1 2 5 6 4
0 0 0 0 1 0 0 0 0 0 0 0 0 0 0 0 0 0 0 0 0 0 0 0 1 1 1 0 0 1 2 3 3 2 3 4 4 2 1 2 4 5 4
0 0 0 0 0 0 0 0 0 0 0 0 0 0 0 0 0 0 0 0 0 0 0 0 1 1 1 0 0 1 2 2 1 1 2 3 3 3 2 2 3 3 3
0 0 0 0 0 0 0 0 0 0 0 0 0 0 0 0 0 0 0 0 0 0 0 0 0 0 0 0 0 1 1 1 0 1 2 3 3 2 2 2 1 1 1
0 0 0 0 0 0 0 0 0 0 0 0 0 0 0 0 0 0 0 0 0 0 0 0 0 0 0 0 1 1 0 0 0 2 3 2 1 1 1 1 1 1 1
0 0 0 0 0 0 0 0 0 0 0 0 0 0 0 0 0 0 0 0 0 0 0 0 0 1 1 1 2 2 1 1 1 1 2 1 0 0 0 0 0 1 1
0 1 1 1 0 0 0 0 0 0 0 0 0 0 0 0 0 0 0 0 0 0 0 1 1 2 2 3 3 3 3 3 2 2 2 1 0 0 0 0 0 0 1
1 2 2 2 1 0 0 0 0 0 0 0 0 0 0 0 0 0 0 0 1 1 1 2 3 4 4 4 4 4 3 3 3 2 2 1 0 0 0 0 0 0 1
4 4 3 2 1 0 0 0 0 0 0 0 0 0 0 0 0 0 1 2 4 3 3 4 5 5 5 5 6 6 4 2 1 1 1 1 0 0 0 0 0 0 0
5 4 3 1 1 1 1 1 1 0 0 1 1 2 2 2 2 2 4 5 5 5 4 4 6 6 7 7 8 8 5 3 2 1 1 1 0 0 0 0 0 1 1
4 5 4 3 2 3 3 2 2 1 1 2 3 4 5 5 5 5 5 5 4 4 3 4 6 7 8 9 9 9 8 6 5 3 2 1 0 0 0 0 0 0 0
4 5 7 5 4 4 4 3 2 2 2 3 3 4 5 6 5 4 3 3 3 3 3 4 5 6 8 9 9 10 9 8 7 5 3 1 1 0 0 0 0 0 0
5 7 8 6 4 4 4 3 2 1 2 3 3 4 4 4 4 2 1 1 2 3 3 4 4 5 6 8 9 10 9 8 7 6 4 3 2 1 1 0 0 0 0

GEFSSE_con_probscp_360.txt.gz
Probability
1 2 3 4 4 4 3 3 2 1 1 0 0 0 0 0 0 0 0 0 0 0 0 0 0 0 0 1 2 2 3 3 2 2 1 1 2 2 1 0 0 0 1
0 1 3 4 4 4 3 3 2 1 0 0 0 0 0 0 0 0 0 0 0 0 0 0 0 0 0 1 2 3 3 3 3 2 1 0 1 2 1 1 0 1 2
0 1 2 4 4 4 3 2 1 1 0 0 0 0 0 0 0 0 0 0 0 0 0 0 0 0 0 1 3 3 3 3 3 3 2 1 1 2 3 2 2 3 4
0 1 2 3 3 3 2 1 1 0 0 0 0 0 0 0 0 0 0 0 0 0 1 1 0 0 0 2 3 3 3 3 3 3 2 1 1 3 4 4 5 5 5
0 0 1 3 3 2 1 1 0 0 0 0 0 0 0 0 0 0 0 0 0 1 2 2 1 0 0 1 2 3 3 3 3 3 1 0 0 2 4 4 5 6 5
0 0 1 2 2 1 1 0 0 0 0 0 1 1 1 1 1 0 0 0 1 2 2 2 1 0 0 1 2 3 4 3 3 3 1 1 1 2 3 4 4 5 5
0 1 1 1 1 1 0 0 0 1 2 2 2 2 3 2 1 0 0 1 1 3 4 3 2 1 1 2 4 6 5 3 3 3 3 2 2 3 3 3 3 4 4
1 2 2 1 1 0 0 0 1 2 3 4 3 3 2 2 1 0 1 1 2 4 5 4 3 2 2 3 5 7 6 4 3 3 3 4 4 5 4 3 2 2 1
3 3 3 3 2 1 0 1 2 3 4 3 2 1 1 1 1 1 1 1 1 3 4 4 4 4 4 4 5 7 6 4 3 2 2 3 5 5 3 2 1 1 0
3 3 3 3 3 1 0 1 2 3 3 3 1 0 0 0 1 1 1 1 1 2 3 4 5 6 6 6 6 6 5 4 3 3 2 4 5 4 2 2 1 0 0
3 3 3 3 3 2 1 0 1 1 2 2 1 0 0 0 1 1 0 0 1 2 3 4 6 8 9 8 7 5 4 3 3 3 3 4 4 3 3 3 2 1 1
3 3 3 3 3 3 1 0 0 0 1 1 0 0 1 1 1 0 1 1 0 1 2 3 5 8 8 7 5 4 3 2 2 3 3 4 4 3 3 3 3 2 2
3 3 3 3 3 2 0 0 1 1 1 1 0 1 2 2 2 1 1 1 0 0 1 3 4 4 4 4 3 2 1 1 1 2 3 4 4 4 3 3 3 4 3
3 3 3 3 2 1 0 0 1 2 2 1 1 2 3 3 3 2 2 1 0 0 0 2 3 2 1 1 1 1 0 0 1 2 4 5 6 5 3 2 3 4 4
3 3 3 3 1 0 0 0 1 2 1 1 1 3 3 4 4 4 3 1 1 1 1 2 2 1 0 0 0 0 0 0 1 2 4 6 7 7 4 3 2 3 5
3 3 3 2 1 0 0 0 1 2 2 2 2 3 3 4 5 5 4 4 3 2 3 3 2 0 0 0 0 0 0 0 0 2 3 4 6 7 8 6 5 4 5
3 3 2 1 0 0 0 0 1 1 2 3 3 2 3 3 5 5 5 6 5 4 4 4 2 1 0 0 0 0 0 0 2 3 3 3 4 6 10 10 7 5 5
2 2 2 1 0 0 0 0 0 0 2 3 3 3 3 3 4 6 7 7 7 5 4 3 2 1 1 0 0 0 0 1 4 4 4 4 4 5 8 9 8 7 6
1 1 2 1 0 0 1 1 1 1 2 3 4 4 5 5 6 8 9 8 7 6 5 3 2 2 2 1 0 0 0 2 4 5 6 6 5 5 6 7 8 8 7
2 3 3 3 3 3 3 3 3 2 2 3 4 5 6 7 7 8 8 7 6 6 6 5 4 5 4 2 1 1 1 3 5 7 8 8 6 6 6 6 6 6 6
5 5 6 7 9 8 7 5 5 3 2 3 5 6 7 8 8 7 7 7 7 7 8 8 8 7 4 3 3 3 3 4 6 9 10 8 5 4 4 4 4 5 6
6 6 7 10 12 11 9 8 6 4 4 4 6 8 8 8 8 8 8 8 9 9 9 9 8 7 5 4 3 4 4 5 7 9 10 8 5 3 2 3 4 5 6
4 5 8 12 13 11 10 10 9 8 6 6 7 8 7 7 8 8 9 10 9 9 9 7 6 6 6 5 5 5 5 5 7 9 10 8 6 4 2 1 2 3 4
4 5 8 12 14 13 12 12 12 10 8 7 7 7 6 6 8 9 10 11 10 10 10 9 8 8 8 8 8 9 7 7 7 9 10 9 7 5 3 2 2 2 2
5 7 9 13 16 17 16 14 13 12 10 8 7 7 6 6 8 10 11 12 14 15 15 15 14 13 12 13 14 14 11 9 9 9 10 11 9 6 4 3 3 3 2
7 8 10 14 17 19 18 16 14 13 11 9 7 7 6 6 7 10 12 13 16 17 19 18 17 16 16 18 19 17 13 10 10 10 10 11 11 7 5 5 4 4 3

GEFSSE_con_probscp_366.txt.gz
Probability
4 3 3 2 1 1 1 1 1 1 0 0 0 0 0 1 2 3 3 3 3 2 2 2 1 0 0 0 0 0 0 0 0 0 0 1 2 3 3 2 0 0 0
5 3 3 2 1 1 3 3 3 2 1 0 0 0 0 0 1 2 2 2 2 1 1 1 0 0 0 0 0 0 0 0 0 0 0 0 1 2 3 3 1 0 0
4 3 2 3 2 2 4 4 3 2 1 0 0 0 0 0 0 0 1 1 1 0 0 0 0 1 1 0 0 0 0 0 0 0 0 0 0 1 4 4 2 1 1
2 1 2 3 2 2 3 3 2 1 0 0 0 0 1 1 0 0 0 0 0 0 0 0 0 0 1 1 0 0 0 0 0 0 0 0 0 1 3 3 3 4 4
1 1 1 3 3 2 2 2 1 0 0 0 0 0 0 1 1 1 0 0 0 0 0 0 0 0 0 0 0 0 0 0 0 0 0 0 1 2 3 4 4 5 6
3 2 2 2 3 2 1 1 0 0 0 0 1 1 1 1 1 1 0 0 0 0 0 0 1 1 1 1 1 1 0 0 0 0 0 0 2 5 7 5 5 5 5
6 4 2 2 4 4 2 1 0 0 0 1 2 2 2 1 1 0 0 0 0 1 1 1 2 3 3 4 4 3 2 1 1 1 1 1 3 7 9 8 6 4 3
6 4 2 2 4 4 3 1 0 0 0 1 2 3 2 1 0 0 0 0 0 0 1 3 4 4 5 6 8 8 7 5 3 2 2 2 3 7 9 10 8 5 2
4 3 1 1 2 3 3 2 1 0 0 1 3 4 3 1 0 0 0 0 0 0 2 4 5 7 8 10 13 14 14 11 6 3 1 2 4 7 10 11 10 7 4
3 2 2 2 1 1 2 2 1 0 0 1 4 6 5 3 1 1 1 2 2 3 5 7 9 11 11 13 16 17 16 13 8 4 2 4 6 8 10 12 11 8 6
3 2 2 3 3 1 1 2 1 1 1 3 5 7 6 5 4 3 4 6 6 7 10 12 14 14 13 14 17 17 15 12 8 6 6 9 12 12 11 12 11 9 8
3 3 3 4 4 2 2 3 3 3 4 5 6 7 7 6 4 4 6 8 8 9 12 15 17 14 12 12 14 15 12 9 7 6 8 13 15 13 11 10 10 9 9
3 3 3 4 5 5 5 5 5 5 5 5 5 6 6 5 3 4 5 5 6 8 11 14 14 13 10 9 9 9 8 6 5 5 7 11 12 12 10 7 7 8 9
4 4 4 4 6 7 8 7 6 5 5 4 4 5 5 4 3 3 4 3 3 5 7 9 9 9 8 6 5 4 4 3 3 3 5 7 10 11 10 7 7 9 9
6 6 6 5 5 7 8 9 7 4 4 4 4 5 6 5 4 5 6 5 3 2 3 5 6 7 8 6 4 3 4 3 3 3 4 6 9 12 12 10 10 10 10
10 9 7 5 5 6 7 8 7 5 4 5 5 6 6 6 6 7 8 8 6 4 4 4 5 7 9 7 5 4 5 4 4 4 4 6 9 12 14 14 13 11 11
12 11 8 7 8 8 6 6 5 5 4 5 6 7 8 8 7 8 9 9 8 7 6 6 6 6 7 6 6 5 6 6 6 6 6 6 8 11 14 15 14 12 11
16 14 10 11 14 12 8 6 5 5 4 4 5 8 10 9 9 9 9 9 9 10 8 6 6 4 4 5 6 6 7 7 8 7 7 7 9 11 14 15 14 12 10
23 21 17 15 17 16 10 7 5 4 4 4 5 8 10 10 9 9 9 10 11 11 9 6 5 5 5 5 6 7 8 8 9 8 7 7 10 14 16 16 14 12 10
29 30 26 21 21 20 15 10 7 6 6 5 7 9 10 10 10 10 10 11 12 12 10 7 6 8 9 6 5 6 8 8 9 9 9 9 11 16 18 17 15 12 11
33 37 33 27 25 26 23 17 13 11 9 7 8 11 13 13 13 13 13 13 14 14 13 11 11 11 11 10 8 7 8 8 9 10 12 12 12 14 16 16 15 13 13
34 36 33 29 28 29 28 23 19 16 13 10 11 15 18 17 15 16 17 16 15 16 16 17 16 15 14 13 13 13 12 12 12 11 13 13 12 13 14 15 15 15 16
30 31 30 31 32 33 32 28 23 21 17 15 16 20 22 21 17 16 17 17 16 16 19 21 21 20 18 17 18 18 18 18 16 15 14 12 12 13 14 13 13 15 17
26 28 34 39 40 38 35 32 28 24 21 18 20 25 25 22 18 16 17 19 18 18 19 21 23 24 23 22 21 21 22 22 20 18 17 14 13 15 15 13 14 16 17
24 29 38 44 46 42 37 34 31 27 23 22 24 29 29 25 21 20 20 22 23 22 20 19 21 25 26 24 23 23 24 25 24 23 22 20 18 18 17 16 17 19 19
22 28 38 46 49 45 39 34 32 29 26 25 27 30 31 27 24 23 24 26 25 24 21 19 20 23 25 24 23 23 24 27 29 27 26 24 21 19 18 18 19 21 21

GEFSSE_con_probscp_372.txt.gz
Probability
0 1 2 2 1 1 1 2 4 5 5 5 6 6 3 2 3 5 4 3 3 3 3 2 1 0 0 0 1 1 1 0 0 0 0 1 0 1 2 2 1 1 1
1 1 2 2 2 2 2 2 3 3 3 3 5 5 3 1 2 2 2 2 2 3 3 2 1 0 0 1 1 1 1 0 0 0 0 1 0 0 1 1 0 0 1
0 1 1 2 2 3 3 2 1 1 1 2 3 3 2 0 0 0 0 1 1 2 2 1 0 0 0 1 2 2 1 0 0 0 0 0 0 0 0 0 0 0 0
0 0 0 1 1 2 2 1 0 0 1 1 1 2 2 1 0 0 0 0 0 1 1 0 0 0 0 1 1 1 1 0 0 0 0 0 0 0 0 0 0 0 1
0 0 0 0 0 1 1 1 0 0 0 0 1 2 3 3 1 0 0 0 0 0 0 0 0 1 1 1 0 0 0 0 0 0 0 0 0 0 0 0 1 1 1
0 0 0 0 0 1 1 0 0 0 0 1 3 4 5 4 2 0 0 0 0 0 0 0 0 1 1 0 0 0 0 0 0 0 1 1 1 1 0 1 1 1 1
0 0 0 0 1 2 3 1 0 1 1 3 4 4 4 4 2 1 1 1 1 2 1 0 0 1 2 1 1 1 1 1 0 0 1 2 2 2 2 2 2 3 4
0 1 1 1 2 4 6 4 2 2 3 4 5 5 4 3 3 3 2 2 3 4 2 1 1 3 4 4 4 3 3 3 2 1 1 1 2 3 3 3 3 5 7
1 1 1 1 1 3 6 5 5 5 4 4 6 6 5 4 3 3 4 5 6 5 3 2 4 6 8 9 8 7 6 6 5 3 2 2 3 3 3 3 4 6 9
1 1 1 0 0 1 3 4 6 7 6 5 6 7 6 4 3 3 4 6 8 7 5 5 8 10 11 12 11 9 7 7 6 5 4 4 5 5 4 3 3 5 6
2 2 2 1 0 0 0 2 5 6 6 5 6 7 7 5 2 2 4 7 9 9 8 10 11 11 11 11 11 10 7 6 5 4 4 6 8 8 7 5 3 3 3
3 2 2 1 0 0 0 1 2 3 3 3 4 5 5 3 1 1 4 8 9 9 9 10 10 9 9 9 8 7 6 5 4 4 4 7 9 10 9 7 4 2 2
3 2 1 0 0 0 0 0 1 1 1 1 1 1 2 1 1 1 2 4 5 5 4 4 4 4 5 6 5 5 4 3 3 3 4 6 9 9 8 7 5 4 4
3 2 1 0 0 0 0 0 0 0 0 0 0 0 1 2 1 1 1 1 2 2 2 1 1 1 2 3 4 3 3 2 2 2 3 5 7 7 8 7 6 6 6
3 2 1 0 1 1 0 0 0 0 0 0 0 1 2 3 3 2 2 2 2 3 3 1 0 0 1 2 3 3 3 2 2 1 1 3 5 6 7 7 6 7 8
3 2 1 2 3 2 1 0 0 0 0 0 0 1 2 3 3 3 3 2 2 3 3 1 0 0 0 1 1 2 3 3 2 1 0 1 1 3 4 6 6 7 7
3 2 3 4 4 2 1 0 0 0 0 0 0 1 1 2 3 3 3 1 1 1 1 0 0 0 0 0 0 1 1 2 2 1 1 1 0 1 3 5 6 7 7
3 3 3 4 4 2 1 1 0 0 0 0 0 0 0 1 2 2 2 1 0 0 0 0 0 0 0 0 0 0 1 2 2 2 2 2 1 1 4 7 9 10 10
4 3 4 5 4 2 2 2 1 1 0 0 0 0 0 0 1 1 1 1 1 1 1 0 0 0 0 0 1 1 0 1 3 3 4 3 2 2 5 9 12 13 13
6 5 5 5 3 2 3 3 1 0 0 0 0 1 1 0 0 1 1 2 2 2 1 0 0 0 0 0 1 1 0 1 2 3 4 4 3 3 5 7 9 10 10
7 7 7 5 3 2 3 3 1 0 1 1 2 1 1 1 1 2 2 2 2 1 0 0 0 0 0 0 1 1 0 0 1 2 3 4 3 3 4 4 3 4 5
9 9 8 6 4 4 4 4 3 2 3 3 3 3 3 2 3 3 3 2 1 0 0 0 1 1 2 2 2 2 2 1 0 1 2 3 2 2 3 3 1 1 2
9 9 9 9 8 7 7 8 8 7 6 5 5 5 4 4 4 5 5 4 2 2 2 1 2 4 6 6 6 6 5 4 1 0 1 2 1 1 1 1 0 0 1
9 9 10 11 12 12 12 13 13 11 8 7 6 6 6 6 6 6 7 6 6 5 4 4 4 7 9 9 9 9 9 7 3 1 0 1 1 0 0 0 0 0 1
11 11 11 13 15 17 18 19 17 13 8 6 5 5 5 5 5 5 6 6 7 7 6 6 7 9 10 10 10 11 10 8 5 2 1 1 0 0 0 0 0 1 2
13 14 13 13 15 19 21 21 19 13 8 5 4 3 2 2 3 3 3 4 6 7 7 7 9 10 10 10 12 12 12 9 6 3 2 2 1 1 1 0 0 1 2